Flag for Canada Weather past 2 weeks in Cape Dorset, Nunavut, Canada

Now
7 °F

Overcast.


Feels Like: 0 °F
Forecast: 2 / 13 °F
Wind: 3 mph from Northwest

Location: Cape Dorset

Current Time: Apr 19, 2015 at 1:43:57 AM

Latest Report: Apr 19, 2015 at 1:00 AM


Visibility: 9 mi

Pressure: 29.99 "Hg

Humidity: 78%

Dew point: 1 °F

Location of Cape DorsetLocation

Historic Weather in Cape Dorset — Graph

°F

Cape Dorset temperature yesterday

Maximum temperature yesterday: 21 °F (at 1:00 PM)
Minimum temperature yesterday: 5 °F (at 9:00 PM)
Average temperature yesterday: 16 °F

Past Weeks' High & Low Weather Summary

 TemperatureHumidityPressure
High23 °F (Apr 12, 10:56 PM)100% (Apr 12, 6:57 PM)30.22 "Hg (Apr 12, 6:57 PM)
Low-13 °F (Apr 15, 5:00 AM)64% (Apr 14, 12:00 PM)29.06 "Hg (Apr 13, 12:00 AM)
Average5 °F82%29.70 "Hg
* Reported Midnight between Apr 3 and Apr 4 — Midnight between Apr 18 and Apr 19, Cape Dorset, Weather by CustomWeather, © 2015

Note: Actual official high and low records may vary slightly from our data, if they occured in-between our weather recording intervals... More about our weather records

Advertising

Cape Dorset weather history for previous 24 hours

 ConditionsComfort  
Time TempWeatherWind HumidityBarometerVisibility
12:00 AM
Sun, Apr 19
7 °FPassing clouds.2 mph78%29.99 "Hg9 mi
11:00 PM
Sat, Apr 18
5 °FClear.No wind85%29.97 "Hg9 mi
10:00 PM5 °FClear.3 mph85%29.96 "Hg9 mi
9:00 PM5 °FSunny.5 mph85%29.95 "Hg9 mi
8:00 PM9 °FSunny.3 mph78%29.93 "Hg9 mi
7:00 PM12 °FScattered clouds.9 mph79%29.90 "Hg9 mi
6:00 PM16 °FLight snow. Scattered clouds.9 mph79%29.89 "Hg9 mi
5:00 PM18 °FLight snow. Scattered clouds.2 mph86%29.88 "Hg9 mi
4:00 PM19 °FLight snow. Partly sunny.3 mph86%29.86 "Hg8 mi
3:00 PM21 °FLight snow. Broken clouds.6 mph86%29.85 "Hg9 mi
2:52 PM21 °FLight snow. Scattered clouds.8 mph86%29.85 "Hg9 mi
2:00 PM19 °FLight snow. Overcast.5 mph93%29.84 "Hg9 mi
1:00 PM21 °FLight snow. Overcast.3 mph86%29.82 "Hg9 mi
12:00 PM19 °FLight snow. Overcast.2 mph93%29.82 "Hg8 mi
11:00 AM18 °FLight snow. Low clouds.No wind100%29.82 "Hg9 mi
10:00 AM18 °FLight snow. Overcast.2 mph93%29.81 "Hg9 mi
9:00 AM19 °FLight snow. Overcast.No wind93%29.81 "Hg9 mi
8:54 AM19 °FLight snow. Overcast.No wind93%29.81 "Hg9 mi
8:01 AM18 °FLight snow. Low clouds.No wind93%29.80 "Hg6 mi
7:04 AM18 °FLight snow. Overcast.No wind93%29.79 "Hg4 mi
7:02 AM18 °FLight snow. Overcast.No wind93%29.79 "Hg4 mi
6:00 AM18 °FLight snow. Overcast.6 mph93%29.78 "Hg2 mi
5:50 AM18 °FLight snow. Overcast.5 mph93%29.78 "Hg2 mi
5:00 AM18 °FLight snow. Overcast.5 mph93%29.78 "Hg2 mi
4:00 AM18 °FLight snow. Passing clouds.8 mph93%29.78 "Hg9 mi
3:53 AM18 °FLight snow. Passing clouds.7 mph93%29.78 "Hg6 mi
3:00 AM16 °FLight snow. Partly cloudy.9 mph93%29.78 "Hg9 mi
2:54 AM18 °FLight snow. Passing clouds.9 mph86%29.78 "Hg6 mi
2:03 AM18 °FLight snow. Overcast.7 mph93%29.78 "Hg2 mi
1:02 AM18 °FLight snow. Mostly cloudy.6 mph93%29.77 "Hg2 mi
Weather by CustomWeather, © 2015

See weather overviewHow to use our weather pages